CW3024 Skarnes NO current weather conditions

sailwx.info

Wind from 015 at 2 knots gusting 12

Air temperature 6.1° C
Dewpoint 4.3° C

Last reported at 2020-Sep-26 04:50 UTC.
Time now 2020-Sep-26 05:45 UTC

Location: N 60°14' E 011°41'.
View on Google Maps.

See reports from other nearby stations

  
Tides and Currents Weather Stations Pressure Air Temp Water Temp Dewpoint Dewpoint Depression Visibility Wind Speed Wind Dir Waves Ship Positions
date/time (UTC)wind fromknots sea level pressurealtimeterstation pressurevisibilityair tempwater tempwave heightnotes
2020-Sep-26 04:50 015 2 gusting 12 6.1
2020-Sep-26 04:40 355 1 gusting 13 6.1
2020-Sep-26 04:30 338 1 gusting 9 6.1
2020-Sep-26 04:20 017 6.1
2020-Sep-26 04:10 239 2 gusting 6 6.1
2020-Sep-26 04:00 331 1 gusting 9 6.1
2020-Sep-26 03:50 012 3 gusting 12 6.1
2020-Sep-26 03:40 014 3 gusting 15 6.1
2020-Sep-26 03:30 034 1 gusting 13 6.1
2020-Sep-26 03:20 012 4 gusting 10 6.1
2020-Sep-26 03:10 019 6 gusting 13 6.1
2020-Sep-26 03:00 031 1 gusting 9 6.1
2020-Sep-26 02:50 349 1 gusting 11 6.1
2020-Sep-26 02:40 004 1 gusting 8 6.1
2020-Sep-26 02:30 011 3 gusting 6 6.1
2020-Sep-26 02:20 335 1 gusting 8 6.7
2020-Sep-26 02:10 330 1 gusting 9 6.7
2020-Sep-26 02:00 029 1 gusting 13 6.7
2020-Sep-26 01:50 332 1 gusting 9 6.7
2020-Sep-26 01:40 003 3 gusting 11 6.7
2020-Sep-26 01:30 008 1 gusting 8 6.7
2020-Sep-26 01:20 012 2 gusting 6 6.7
2020-Sep-26 01:10 034 1 gusting 10 6.7
2020-Sep-26 01:00 041 2 gusting 9 6.7
2020-Sep-26 00:50 346 1 gusting 12 6.7
2020-Sep-26 00:40 002 3 gusting 12 7.2
2020-Sep-26 00:30 010 1 gusting 9 7.2
2020-Sep-26 00:20 342 1 gusting 6 7.2
2020-Sep-26 00:10 020 3 gusting 8 7.8
2020-Sep-26 00:00 042 1 gusting 6 7.8
2020-Sep-25 23:50 334 1 gusting 6 8.3
2020-Sep-25 23:40 321 1 gusting 6 8.9
2020-Sep-25 23:30 351 3 gusting 9 9.4
2020-Sep-25 23:20 021 2 gusting 9 10.0
2020-Sep-25 23:10 321 1 gusting 6 10.6
2020-Sep-25 23:00 335 1 gusting 6 10.6
2020-Sep-25 22:50 002 1 gusting 8 10.6
2020-Sep-25 22:40 342 2 gusting 6 10.6
2020-Sep-25 22:30 048 1 gusting 4 10.6
2020-Sep-25 22:20 033 1 gusting 6 10.6
2020-Sep-25 22:10 309 0 gusting 9 10.6
2020-Sep-25 22:00 341 0 gusting 9 10.6
2020-Sep-25 21:50 352 1 gusting 5 10.6
2020-Sep-25 21:40 019 3 gusting 6 10.6
2020-Sep-25 21:30 353 3 gusting 6 10.6
2020-Sep-25 21:20 046 1 gusting 6 10.6
2020-Sep-25 21:10 040 0 gusting 6 10.6
2020-Sep-25 21:00 337 2 gusting 6 11.1
2020-Sep-25 20:50 005 1 gusting 7 11.1
2020-Sep-25 20:40 005 1 gusting 6 11.1
2020-Sep-25 20:30 016 0 gusting 6 10.6
2020-Sep-25 20:20 340 1 gusting 5 10.6
2020-Sep-25 20:10 328 0 gusting 5 10.6
2020-Sep-25 20:00 321 1 gusting 9 10.6
2020-Sep-25 19:50 350 1 gusting 7 11.1
2020-Sep-25 19:40 320 3 gusting 6 11.1
2020-Sep-25 19:30 330 1 gusting 9 11.1
2020-Sep-25 19:20 029 1 gusting 5 11.1
2020-Sep-25 19:10 040 11.1
2020-Sep-25 19:00 352 11.1
2020-Sep-25 18:50 343 0 gusting 3 11.1
2020-Sep-25 18:40 083 0 gusting 3 11.1
2020-Sep-25 18:30 016 0 gusting 3 11.7
2020-Sep-25 18:20 032 11.7
2020-Sep-25 18:10 070 1 gusting 4 11.7
2020-Sep-25 18:00 334 0 gusting 6 12.2
2020-Sep-25 17:50 019 0 gusting 3 12.2
2020-Sep-25 17:40 022 0 gusting 6 12.2
2020-Sep-25 17:30 353 1 gusting 4 12.2
2020-Sep-25 17:20 021 1 gusting 4 12.2
2020-Sep-25 17:10 024 1 gusting 6 12.2
2020-Sep-25 17:00 016 0 gusting 3 12.2
2020-Sep-25 16:50 013 12.2
2020-Sep-25 16:40 022 12.2
2020-Sep-25 16:30 018 12.8
2020-Sep-25 16:20 049 0 gusting 4 12.8
2020-Sep-25 16:10 349 12.8
2020-Sep-25 16:00 018 0 gusting 3 12.8
2020-Sep-25 15:50 340 13.3
2020-Sep-25 15:40 052 1 gusting 6 13.3
2020-Sep-25 15:30 029 1 gusting 3 13.3
2020-Sep-25 15:20 351 13.3
2020-Sep-25 15:10 337 13.3
2020-Sep-25 15:00 003 13.9
2020-Sep-25 14:50 034 1 gusting 6 13.9
2020-Sep-25 14:40 350 13.9
2020-Sep-25 14:30 016 0 gusting 3 13.9
2020-Sep-25 14:20 032 0 gusting 3 14.4
2020-Sep-25 14:10 001 13.9
2020-Sep-25 14:00 016 1 gusting 5 13.9
2020-Sep-25 13:50 359 0 gusting 3 14.4
2020-Sep-25 13:40 334 14.4
2020-Sep-25 13:30 353 1 gusting 4 14.4
2020-Sep-25 13:20 001 1 gusting 3 15.0
2020-Sep-25 13:10 005 0 gusting 2 15.0
2020-Sep-25 13:00 035 15.0
2020-Sep-25 12:50 026 1 gusting 3 15.0
2020-Sep-25 12:40 354 1 gusting 3 15.0
2020-Sep-25 12:30 026 0 gusting 4 15.0
2020-Sep-25 12:20 342 0 gusting 6 14.4
2020-Sep-25 12:10 351 1 gusting 5 14.4
2020-Sep-25 12:00 354 1 gusting 3 14.4
2020-Sep-25 11:50 346 0 gusting 2 14.4
2020-Sep-25 11:40 348 0 gusting 3 14.4
2020-Sep-25 11:30 339 1 gusting 4 13.9
2020-Sep-25 11:20 322 1 gusting 3 13.9
2020-Sep-25 11:10 337 13.9
2020-Sep-25 11:00 298 13.3
2020-Sep-25 10:50 310 0 gusting 3 13.3
2020-Sep-25 10:40 316 13.3
2020-Sep-25 10:30 311 12.8
2020-Sep-25 10:20 308 13.3
2020-Sep-25 10:10 336 13.3
2020-Sep-25 10:00 092 13.3
2020-Sep-25 09:50 029 12.8
2020-Sep-25 09:40 014 1 gusting 2 12.2
2020-Sep-25 09:30 321 1 gusting 3 12.2
2020-Sep-25 09:20 336 11.7
2020-Sep-25 09:10 316 11.7
2020-Sep-25 09:00 321 11.1
2020-Sep-25 08:50 324 11.1
2020-Sep-25 08:40 027 11.1
2020-Sep-25 08:30 119 10.6
2020-Sep-25 08:20 102 10.6
2020-Sep-25 08:10 072 10.0
2020-Sep-25 08:00 071 9.4
2020-Sep-25 07:50 049 8.9
2020-Sep-25 07:40 8.3
2020-Sep-25 07:30 7.8
2020-Sep-25 07:20 7.2
2020-Sep-25 07:10 181 7.2
2020-Sep-25 07:00 159 6.7
2020-Sep-25 06:50 131 6.1
2020-Sep-25 06:40 5.6
2020-Sep-25 06:30 5.6
2020-Sep-25 06:20 5.0
2020-Sep-25 06:10 5.0
2020-Sep-25 06:00 046 4.4
2020-Sep-25 05:50 046 0 gusting 1 4.4
2020-Sep-25 05:40 135 4.4
2020-Sep-25 05:30 126 4.4
2020-Sep-25 05:20 098 4.4
2020-Sep-25 05:10 4.4
2020-Sep-25 05:00 135 4.4
2020-Sep-25 04:50 143 4.4
2020-Sep-25 04:40 130 4.4
2020-Sep-25 04:30 5.0
2020-Sep-25 04:20 314 5.0
2020-Sep-25 04:10 5.0
2020-Sep-25 04:00 128 5.6
2020-Sep-25 03:50 103 5.6
2020-Sep-25 03:40 046 5.6
2020-Sep-25 03:30 314 5.6
2020-Sep-25 03:20 115 6.1
2020-Sep-25 03:10 135 6.1
2020-Sep-25 03:00 6.7
2020-Sep-25 02:50 7.2
2020-Sep-25 02:40 7.8
2020-Sep-25 02:30 270 8.3
2020-Sep-25 02:20 143 8.3
2020-Sep-25 02:10 209 1 gusting 6 8.9
2020-Sep-25 02:00 167 2 gusting 9 8.9
2020-Sep-25 01:50 158 2 gusting 13 8.9
2020-Sep-25 01:40 142 1 gusting 6 8.9
2020-Sep-25 01:30 161 2 gusting 9 8.9
2020-Sep-25 01:20 157 3 gusting 7 8.9
2020-Sep-25 01:10 168 3 gusting 6 8.9
2020-Sep-25 01:00 151 1 gusting 6 8.9
2020-Sep-25 00:50 163 1 gusting 6 9.4
2020-Sep-25 00:40 170 1 gusting 6 9.4
2020-Sep-25 00:30 178 1 gusting 6 9.4
2020-Sep-25 00:20 166 2 gusting 6 9.4
2020-Sep-25 00:10 144 1 gusting 5 9.4
2020-Sep-25 00:00 133 2 gusting 6 9.4
2020-Sep-24 23:50 151 1 gusting 6 10.0
2020-Sep-24 23:40 164 1 gusting 8 10.0
2020-Sep-24 23:30 154 1 gusting 9 10.0
2020-Sep-24 23:20 163 5 gusting 8 10.0
2020-Sep-24 23:10 195 1 gusting 9 10.0
2020-Sep-24 23:00 155 1 gusting 11 10.0
2020-Sep-24 22:50 164 3 gusting 9 10.0
2020-Sep-24 22:40 179 5 gusting 7 10.0
2020-Sep-24 22:30 163 1 gusting 7 10.0
2020-Sep-24 22:20 148 1 gusting 7 10.0
2020-Sep-24 22:10 142 2 gusting 6 10.0
2020-Sep-24 22:00 128 1 gusting 10 10.0
2020-Sep-24 21:50 154 0 gusting 8 10.6
2020-Sep-24 21:40 170 1 gusting 9 10.6
2020-Sep-24 21:30 151 1 gusting 12 10.6
2020-Sep-24 21:20 153 5 gusting 13 10.6
2020-Sep-24 21:10 185 1 gusting 6 10.6
2020-Sep-24 21:00 169 3 gusting 7 11.1
2020-Sep-24 20:50 197 3 gusting 8 11.1
2020-Sep-24 20:40 186 2 gusting 11 11.1
2020-Sep-24 20:30 168 5 gusting 12 11.1
2020-Sep-24 20:20 144 5 gusting 9 11.7
2020-Sep-24 20:10 125 4 gusting 8 11.7
2020-Sep-24 20:00 165 2 gusting 10 11.7
2020-Sep-24 19:50 157 4 gusting 11 11.7
2020-Sep-24 19:40 154 1 gusting 11 11.7
2020-Sep-24 19:30 170 3 gusting 14 11.7
2020-Sep-24 19:20 172 6 gusting 19 12.2
2020-Sep-24 19:10 165 6 gusting 14 12.2
2020-Sep-24 19:00 170 6 gusting 14 12.2
2020-Sep-24 18:50 162 3 gusting 19 12.2
2020-Sep-24 18:40 172 3 gusting 13 12.2
2020-Sep-24 18:30 169 6 gusting 13 12.2
2020-Sep-24 18:20 170 2 gusting 13 12.2
2020-Sep-24 18:10 153 5 gusting 14 12.2
2020-Sep-24 18:00 176 3 gusting 13 12.8
2020-Sep-24 17:50 140 5 gusting 15 12.8
2020-Sep-24 17:40 156 5 gusting 19 12.8
2020-Sep-24 17:30 168 3 gusting 17 12.8
2020-Sep-24 17:20 149 3 gusting 14 12.8
2020-Sep-24 17:10 204 3 gusting 14 13.3
2020-Sep-24 17:00 163 6 gusting 16 13.3
2020-Sep-24 16:50 152 4 gusting 14 13.3
2020-Sep-24 16:40 149 6 gusting 14 13.9
2020-Sep-24 16:30 156 6 gusting 16 13.9
2020-Sep-24 16:20 164 9 gusting 16 13.9
2020-Sep-24 16:10 153 3 gusting 13 13.9
2020-Sep-24 16:00 165 6 gusting 20 14.4
2020-Sep-24 15:50 171 3 gusting 14 14.4
2020-Sep-24 15:40 139 3 gusting 18 14.4
2020-Sep-24 15:30 158 6 gusting 14 14.4
2020-Sep-24 15:20 145 4 gusting 13 15.0
2020-Sep-24 15:10 201 4 gusting 13 15.0
2020-Sep-24 15:00 161 7 gusting 15 15.0
2020-Sep-24 14:50 169 9 gusting 18 15.6
2020-Sep-24 14:40 159 1 gusting 21 15.6
2020-Sep-24 14:30 163 6 gusting 16 15.6
2020-Sep-24 14:20 154 6 gusting 19 15.6
2020-Sep-24 14:10 175 4 gusting 15 16.1
2020-Sep-24 14:00 166 6 gusting 19 16.1
2020-Sep-24 13:50 155 6 gusting 14 16.1
2020-Sep-24 13:40 171 6 gusting 19 16.7
2020-Sep-24 13:30 172 6 gusting 14 16.7
2020-Sep-24 13:20 149 8 gusting 21 16.1
2020-Sep-24 13:00 185 8 gusting 19 17.2
2020-Sep-24 12:50 171 3 gusting 14 17.8
2020-Sep-24 12:40 156 7 gusting 17 17.2
2020-Sep-24 12:30 151 9 gusting 19 16.7
2020-Sep-24 12:20 158 6 gusting 19 17.8
2020-Sep-24 12:10 189 5 gusting 19 17.8
2020-Sep-24 12:00 116 9 gusting 16 17.2
2020-Sep-24 11:50 109 10 gusting 16 17.2
2020-Sep-24 11:40 152 6 gusting 19 16.7
2020-Sep-24 11:30 134 4 gusting 13 16.7
2020-Sep-24 11:20 155 5 gusting 14 16.7
2020-Sep-24 11:10 135 4 gusting 20 16.7
2020-Sep-24 11:00 133 9 gusting 20 16.7
2020-Sep-24 10:50 156 5 gusting 19 16.1
2020-Sep-24 10:40 143 5 gusting 13 15.6
2020-Sep-24 10:30 134 5 gusting 13 15.6
2020-Sep-24 10:20 117 5 gusting 13 15.0
2020-Sep-24 10:10 133 2 gusting 8 15.0
2020-Sep-24 10:00 130 3 gusting 9 15.0
2020-Sep-24 09:50 114 3 gusting 13 15.0
2020-Sep-24 09:40 103 3 gusting 11 15.0
2020-Sep-24 09:30 115 2 gusting 10 14.4
2020-Sep-24 09:20 123 6 gusting 13 14.4
2020-Sep-24 09:10 115 3 gusting 12 15.0
2020-Sep-24 09:00 125 3 gusting 14 15.0
2020-Sep-24 08:50 114 3 gusting 8 14.4
2020-Sep-24 08:40 096 1 gusting 6 14.4
2020-Sep-24 08:30 108 1 gusting 7 15.0
2020-Sep-24 08:20 117 2 gusting 8 14.4
2020-Sep-24 08:10 133 1 gusting 8 14.4
2020-Sep-24 08:00 105 1 gusting 6 14.4
2020-Sep-24 07:50 138 1 gusting 6 14.4
2020-Sep-24 07:40 107 2 gusting 7 14.4
2020-Sep-24 07:30 095 1 gusting 6 14.4
2020-Sep-24 07:20 097 2 gusting 6 14.4
2020-Sep-24 07:10 123 1 gusting 7 13.9
2020-Sep-24 07:00 119 1 gusting 7 13.9
2020-Sep-24 06:50 108 1 gusting 3 13.9
2020-Sep-24 06:40 148 13.9
2020-Sep-24 06:30 116 1 gusting 4 13.9
2020-Sep-24 06:20 125 0 gusting 5 13.9
2020-Sep-24 06:10 129 0 gusting 6 13.9
2020-Sep-24 06:00 137 1 gusting 6 13.9
2020-Sep-24 05:50 101 1 gusting 6 13.9
2020-Sep-24 05:40 062 2 gusting 6 13.9
2020-Sep-24 05:30 090 1 gusting 4 13.9
2020-Sep-24 05:20 096 0 gusting 6 14.4
2020-Sep-24 05:10 122 1 gusting 3 14.4
2020-Sep-24 05:00 117 0 gusting 4 14.4